Regional Weather Roundup
Issued by NWS

Home | Current Version | Previous Version | Text Only | Print | Product List | Glossary On
Versions: 1 2 3 4 5 6 7 8 9 10 11 12 13 14 15 16 17 18 19 20 21 22 23 24 25 26 27 28 29 30 31 32 33 34 35 36 37 38 39 40 41 42 43 44 45 46 47 48 49 50
000
ASMX46 KSGX 310610
RWRMX

MEXICAN WEATHER ROUNDUP
NATIONAL WEATHER SERVICE SAN DIEGO CA
1000 PM PST FRI JAN 30 2015

BAJA CALIFORNIA

CITY           SKY/WX    TMP DP  RH WIND       PRES   REMARKS
LA PAZ         MOCLDY    64  57  77 S9        29.97
TIJUANA          N/A    N/A N/A N/A MISG        N/A

NORTHWESTERN MEXICO

CITY           SKY/WX    TMP DP  RH WIND       PRES   REMARKS
CHIHUAHUA      LGT RAIN  48  48 100 E9        30.02
CULIACAN       CLOUDY    66  61  82 CALM      29.99
HERMOSILLO     LGT RAIN  63  61  94 SE7       29.91R

NORTHEASTERN MEXICO

CITY           SKY/WX    TMP DP  RH WIND       PRES   REMARKS
MONTERREY      CLOUDY    61  59  94 E17       30.12F
TORREON        MOCLDY    59  46  63 W7        30.02S
VICTORIA       CLOUDY    61  61 100 E3        30.19

WESTERN MEXICO

CITY           SKY/WX    TMP DP  RH WIND       PRES   REMARKS
AGUASCALIENTES MOCLDY    48  34  57 N8        30.22
COLIMA         MOCLDY    68  64  88 CALM      30.07S
DURANGO        CLOUDY    57  46  67 S9        30.11S
GUADALAJARA    PTCLDY    61  46  59 W5        30.15
MAZATLAN       LGT RAIN  66  63  88 N9        29.92
ZACATECAS      CLEAR     48  32  53 CALM      30.21F

CENTRAL MEXICO

CITY           SKY/WX    TMP DP  RH WIND       PRES   REMARKS
LEON           PTCLDY    54  39  58 NE15      30.29S
MEXICO CITY    PTCLDY    52  37  58 W6        30.34S
MORELIA        PTCLDY    57  39  51 E2        30.22
QUERETARO      MOCLDY    46  43  87 E6        30.32F
S. LUIS POTOSI PTCLDY    46  41  81 E9        30.28F
TAMPICO        PTCLDY    64  63  94 CALM      30.18F
TOLUCA         PTCLDY    41  30  65 E5        30.37S
VERACRUZ       PTCLDY    63  57  82 NW3       30.17F

SOUTHERN MEXICO

CITY           SKY/WX    TMP DP  RH WIND       PRES   REMARKS
ACAPULCO       CLEAR     77  72  83 N6        29.93F
TAPACHULA      CLEAR     73  66  78 CALM      29.92S
TUX. GUTIERREZ PTCLDY    61  52  72 W5        30.12F

YUCATAN PENINSULA

CITY           SKY/WX    TMP DP  RH WIND       PRES   REMARKS
CANCUN         PTCLDY    68  61  77 NE3       30.15F
C. DEL CARMEN  CLOUDY    73  63  68 N12       30.12
COZUMEL        PTCLDY    66  64  94 E3        30.14F
MERIDA         CLEAR     68  61  77 NE7       30.15F

$$



USA.gov is the U.S. government's official web portal to all federal, state and local government web resources and services.